Regional Weather Roundup
Issued by NWS

Home | Current Version | Previous Version | Text Only | Print | Product List | Glossary Off
Versions: 1 2 3 4 5 6 7 8 9 10 11 12 13 14 15 16 17 18 19 20 21 22 23 24 25 26 27 28 29 30 31 32 33 34 35 36 37 38 39 40 41 42 43 44 45 46 47 48 49 50

273
ASUS44 KLIX 281510
RWRLA
LOUISIANA WEATHER ROUNDUP
NATIONAL WEATHER SERVICE NEW ORLEANS LA
900 AM CST SAT FEB 28 2015

NOTE: "FAIR" INDICATES FEW OR NO CLOUDS BELOW 12,000 FEET WITH NO
      SIGNIFICANT WEATHER AND/OR OBSTRUCTIONS TO VISIBILITY.
      SKY/WX - SKY CONDITION AND SIGNIFICANT WEATHER.
      TMP - AIR TEMPERATURE.    DP   - DEWPOINT TEMPERATURE.
      RH  - RELATIVE HUMIDITY.  PRES - PRESSURE.
      HX  - HEAT INDEX.         WCI  - WIND CHILL INDEX.

*  THESE STATIONS ARE NOT NWS OR FAA STATIONS AND ARE NOT UNDER
   NWS QUALITY CONTROL.

LAZ040-048-061>063-065-066-069-281600-
SOUTHEAST LOUISIANA

CITY           SKY/WX    TMP DP  RH WIND       PRES   REMARKS
N.O. AUDUBON     N/A     48  33  55 MISG        N/A
N.O. INTL ARPT PTSUNNY   45  31  58 NE15      30.42R
N.O. LAKEFRONT MOSUNNY   47  32  56 E15       30.43R
SLIDELL        SUNNY     47  31  53 NE8       30.42F
BATON ROUGE    SUNNY     46  29  51 E12       30.40F
BOOTHVILLE     CLOUDY    50  43  77 NE14G22   30.40R
BELLE CHASSE   PTSUNNY   46  32  58 NE16      30.41R
BOGALUSA*        N/A     45  28  50 NE3       30.46S
GALLIANO*      CLOUDY    49  38  66 MISG      30.40S
NEW ROADS*     CLOUDY    46  27  47 E9        30.41S
GONZALES*      CLOUDY    44  31  60 E5        30.41R
HAMMOND*       PTSUNNY   48  28  46 E5        30.43S
HOUMA*         CLOUDY    46  36  66 NE14      30.39S
PORT FOURCHON* PTSUNNY   48  41  76 NE21      30.41R

$$

LAZ041-044-053-054-281600-
SOUTHWEST LOUISIANA

CITY           SKY/WX    TMP DP  RH WIND       PRES   REMARKS
LAKE CHARLES   MOSUNNY   44  30  57 E16       30.36R
LAFAYETTE      CLOUDY    43  29  57 E7        30.38S
PATTERSON      CLOUDY    45  34  65 E14       30.38F
SALT POINT       N/A     47  35  63 VRB7G20   30.35R
NEW IBERIA     PTSUNNY   44  30  57 NE16      30.37S
CHENAULT AIRPK PTSUNNY   43  30  61 E9G17     30.37R

$$

LAZ027-028-281600-
CENTRAL LOUISIANA

CITY           SKY/WX    TMP DP  RH WIND       PRES   REMARKS
FORT POLK      CLOUDY    38  27  62 VRB7      30.38S WCI  33
ALEXANDRIA INT CLOUDY    39  28  64 NE7       30.41R WCI  34
ALEXANDRIA     CLOUDY    40  27  59 NE9       30.42S WCI  34

$$

LAZ001-002-281600-
NORTHWEST LOUISIANA

CITY           SKY/WX    TMP DP  RH WIND       PRES   REMARKS
SHREVEPORT     CLOUDY    34  24  67 E10       30.43S WCI  26
BARKSDALE AFB  CLOUDY    33  22  66 NE8       30.44S WCI  25
DTN SHREVEPORT CLOUDY    32  21  64 NE6       30.44S WCI  26

$$

LAZ014-016-281600-
NORTHEAST LOUISIANA

CITY           SKY/WX    TMP DP  RH WIND       PRES   REMARKS
MONROE         CLOUDY    34  27  75 NE13      30.49S WCI  25
TALLULAH       CLOUDY    37  27  67 NE7       30.47F WCI  32

$$




USA.gov is the U.S. government's official web portal to all federal, state and local government web resources and services.